星链-31754 (STARLINK-31754 )

导读 | 豆包AI

STARLINK-31754是美国SpaceX公司星链(Starlink)星座的第二代卫星,于北京时间2024年4月13日发射升空,部署在近地轨道。它搭载增强型相控阵天线与激光星间链路,可支持高速低延迟宽带通信,单星容量超100Gbps,为全球特别是偏远地区提供互联网接入。该卫星配备氪离子推进系统,具备自主避碰能力,退役后将主动降轨在大气层完全烧毁,减少空间碎片影响,是SpaceX扩展全球卫星互联网网络的重要节点。

基本信息
目录编号:
59488
目录名称:
STARLINK-31754
国际标识:
2024-071E
轨道中心:
EARTH
卫星名称:
星链-31754
卫星全名:
星链-31754 (STARLINK-31754 )
卫星状态:
在轨 (已飞行747 天)
发射日期:
2024-04-13 UTC
国别 :
美国 (US)
星等 :
--
轨道信息
数据来源 国际轨道数据
星历时间: 2026-04-29T20:44:05+0800
11小时前
查看轨道信息
半长轴: 6861.19km
偏心率: 0.0000842
轨道倾角: 43.002°
近地点辐角 255.680°
升交点赤经 60.188°
平近点角 104.395°
近地点: 482.475km
远地点: 483.631km
周期: 94.267分钟
每日圈数: 15.275788
详细信息
固有亮度:
5
最大亮度:
1.5
卫星平台:
Starlink v2.0 mini
覆盖范围:
全球
运营商:
太空探索技术公司
运营商所在国:
美国
制造商(研发单位):
太空探索技术公司
制造商所在国:
美国
使用方式:
暂无
卫星简介
星链(Starlink)计划是由太空探索技术公司(SpaceX)提出的一个巨型低轨卫星互联网星座项目,计划在2019年至2024年间在太空搭建由约1.2万颗卫星组成的“星链”网络,其中1584颗将部署在地球上空550千米处的近地轨道,并从2020年开始工作。该卫星仍在工作。
2D轨道图
3D轨道图
轨道高度分析图
轨道倾角分析图
轨道综合分析图
查看轨道综合分析图